Location: Caltech
(34.1382°N, 118.1253°W)
Time: 18:52:58
(UTC-07:00)

A-11 Canister half - All Passes

Search period start: 22 June 2017 00:00
Search period end: 02 July 2017 00:00
Orbit: 1517 x 1683 km, 47.2° (Epoch: 21 June)

Date Brightness Start Highest point End Pass type
(mag) Time Alt. Az. Time Alt. Az. Time Alt. Az.
22 Jun - 01:44:45 10° WNW 01:53:13 40° SW 02:01:37 10° SSE visible
22 Jun - 14:55:38 10° S 15:02:42 22° SE 15:09:38 10° E daylight
22 Jun - 16:56:40 10° SW 17:06:43 79° SE 17:16:26 10° NE daylight
22 Jun - 19:02:55 10° W 19:12:21 47° NNW 19:21:29 10° NE daylight
22 Jun - 21:10:31 10° WNW 21:19:21 38° N 21:27:55 10° ENE visible
22 Jun - 23:16:20 10° NW 23:25:47 65° NNE 23:34:58 10° ESE visible
23 Jun - 01:21:45 10° WNW 01:30:23 44° SW 01:38:55 10° SSE visible
23 Jun - 14:33:12 10° SSE 14:39:51 20° SE 14:46:24 10° E daylight
23 Jun - 16:33:46 10° SW 16:43:48 75° SE 16:53:32 10° ENE daylight
23 Jun - 18:39:50 10° W 18:49:21 48° NNW 18:58:34 10° NE daylight
23 Jun - 20:47:29 10° WNW 20:56:19 37° N 21:04:54 10° ENE visible
23 Jun - 22:53:24 10° NW 23:02:51 62° NNE 23:12:01 10° ESE visible
24 Jun - 00:58:45 10° WNW 01:07:33 47° SW 01:16:13 10° SSE visible
24 Jun - 14:10:50 10° SSE 14:17:01 18° SE 14:23:07 10° E daylight
24 Jun - 16:10:54 10° SW 16:20:53 71° SE 16:30:36 10° ENE daylight
24 Jun - 18:16:46 10° W 18:26:21 50° NNW 18:35:39 10° NE daylight
24 Jun - 20:24:25 10° WNW 20:33:17 37° N 20:41:53 10° ENE visible
24 Jun - 22:30:28 10° NW 22:39:54 60° NNE 22:49:03 10° ESE visible
25 Jun - 00:35:46 10° WNW 00:44:42 50° SW 00:53:29 10° SSE visible
25 Jun - 13:48:32 10° SSE 13:54:10 17° ESE 13:59:44 10° E daylight
25 Jun - 15:48:01 10° SW 15:57:59 67° SE 16:07:40 10° ENE daylight
25 Jun - 17:53:40 10° W 18:03:21 52° NNW 18:12:44 10° NE daylight
25 Jun - 20:01:21 10° WNW 20:10:15 37° N 20:18:52 10° ENE daylight
25 Jun - 22:07:31 10° NW 22:16:56 57° NNE 22:26:04 10° ESE visible
26 Jun - 00:12:48 10° WNW 00:21:51 54° SW 00:30:45 10° SSE visible
26 Jun - 02:25:10 10° WSW 02:25:12 10° WSW 02:25:14 10° WSW visible
26 Jun - 13:26:21 10° SSE 13:31:20 15° ESE 13:36:16 10° E daylight
26 Jun - 15:25:10 10° SW 15:35:04 63° SE 15:44:44 10° ENE daylight
26 Jun - 17:30:36 10° W 17:40:21 54° NNW 17:49:49 10° NE daylight
26 Jun - 19:38:17 10° WNW 19:47:12 37° N 19:55:51 10° ENE daylight
26 Jun - 21:44:34 10° NW 21:53:59 55° NNE 22:03:05 10° ESE visible
26 Jun - 23:49:49 10° WNW 23:59:00 58° SW 00:07:59 10° SSE visible
27 Jun - 01:59:40 10° WSW 02:02:24 12° WSW 02:05:09 10° SW visible
27 Jun - 13:04:19 10° SSE 13:08:30 13° ESE 13:12:39 10° E daylight
27 Jun - 15:02:19 10° SSW 15:12:10 59° SE 15:21:47 10° ENE daylight
27 Jun - 17:07:32 10° WSW 17:17:21 56° NNW 17:26:54 10° NE daylight
27 Jun - 19:15:13 10° WNW 19:24:10 37° N 19:32:50 10° ENE daylight
27 Jun - 21:21:37 10° NW 21:31:00 53° NNE 21:40:05 10° E visible
27 Jun - 23:26:51 10° WNW 23:36:09 62° SW 23:45:12 10° SE visible
28 Jun - 01:35:46 10° W 01:39:37 13° WSW 01:43:26 10° SSW visible
28 Jun - 12:42:34 10° SE 12:45:40 12° ESE 12:48:45 10° ESE daylight
28 Jun - 14:39:30 10° SSW 14:49:16 55° SE 14:58:49 10° ENE daylight
28 Jun - 16:44:29 10° WSW 16:54:23 59° NNW 17:03:59 10° NE daylight
28 Jun - 18:52:08 10° WNW 19:01:07 38° N 19:09:50 10° ENE daylight
28 Jun - 20:58:38 10° NW 21:08:02 51° NNE 21:17:05 10° E visible
28 Jun - 23:03:53 10° WNW 23:13:17 66° SW 23:22:24 10° SE visible
29 Jun - 01:12:10 10° W 01:16:48 15° WSW 01:21:25 10° SSW visible
29 Jun - 12:21:44 10° SE 12:22:51 10° ESE 12:23:56 10° ESE daylight
29 Jun - 14:16:42 10° SSW 14:26:22 52° SE 14:35:51 10° ENE daylight
29 Jun - 16:21:26 10° WSW 16:31:23 61° NNW 16:41:05 10° NE daylight
29 Jun - 18:29:02 10° WNW 18:38:05 38° N 18:46:51 10° ENE daylight
29 Jun - 20:35:40 10° NW 20:45:02 49° NNE 20:54:05 10° E visible
29 Jun - 22:40:56 10° WNW 22:50:24 70° SW 22:59:36 10° SE visible
30 Jun - 00:48:43 10° W 00:54:00 17° WSW 00:59:16 10° SSW visible
30 Jun - 13:53:54 10° SSW 14:03:29 49° SE 14:12:53 10° ENE daylight
30 Jun - 15:58:23 10° WSW 16:08:24 64° NNW 16:18:10 10° NE daylight
30 Jun - 18:05:56 10° WNW 18:15:02 38° N 18:23:51 10° ENE daylight
30 Jun - 20:12:41 10° NW 20:22:03 48° NNE 20:31:04 10° E daylight
30 Jun - 22:17:59 10° WNW 22:27:32 74° SW 22:36:46 10° SE visible
01 Jul - 00:25:22 10° W 00:31:12 18° SW 00:37:00 10° SSW visible
01 Jul - 13:31:09 10° SSW 13:40:35 46° SE 13:49:53 10° ENE daylight
01 Jul - 15:35:21 10° WSW 15:45:26 67° NNW 15:55:15 10° NE daylight
01 Jul - 17:42:50 10° WNW 17:51:59 39° N 18:00:52 10° ENE daylight
01 Jul - 19:49:43 10° NW 19:59:03 46° NNE 20:08:04 10° E daylight
01 Jul - 21:55:01 10° NW 22:04:38 79° SW 22:13:56 10° SE visible
